Temperature
21 22 21 21 20 20 20 19 19 19 19 19 19 19 19 19 18 18 18 18 18 18 18 18 18 18 18 18 18 19 19 18 18 18 19 18 18 18 18 17 17 18 18
21 22 21 21 20 20 20 19 19 19 19 19 19 19 19 18 18 18 18 18 18 18 18 18 18 18 18 18 18 18 18 18 18 18 18 18 18 18 17 17 17 18 18
21 22 21 21 20 20 20 19 19 19 19 19 19 19 18 18 18 18 18 18 18 18 18 18 18 18 18 18 18 18 18 18 18 18 18 18 18 18 17 17 17 18 18
21 21 21 21 20 20 19 19 19 19 19 19 19 19 18 18 18 18 18 18 18 18 18 18 18 18 18 18 18 18 18 18 18 17 17 17 18 18 18 17 17 18 17
20 21 21 20 20 20 19 19 19 19 19 19 19 19 19 18 18 18 18 18 18 18 18 18 18 18 18 18 18 18 18 18 18 17 17 17 18 18 18 17 17 17 17
20 20 21 20 20 20 19 19 19 19 19 19 19 18 18 18 18 18 18 18 18 18 18 18 18 18 18 18 18 18 18 18 18 18 18 18 18 18 18 17 17 17 17
20 20 21 20 20 20 19 19 19 19 19 19 19 19 18 18 18 18 18 18 18 18 18 18 18 18 18 18 18 18 18 18 18 18 18 18 18 18 17 17 17 17 17
20 20 21 20 20 19 19 19 19 19 19 19 19 19 18 18 18 18 18 18 18 18 18 18 18 18 18 18 18 18 18 18 18 18 18 18 18 18 18 17 17 17 17
21 20 21 20 20 19 19 19 19 19 19 19 19 18 18 18 18 18 18 18 18 18 18 18 18 18 18 18 18 19 19 18 18 18 18 18 18 18 18 17 17 17 17
21 20 20 20 20 19 19 19 19 19 19 19 19 18 18 18 18 18 18 18 18 18 18 18 18 18 18 18 18 19 19 19 18 18 18 18 18 18 18 18 17 17 17
21 20 20 19 19 19 19 19 19 19 19 18 18 18 18 18 18 18 18 18 18 18 18 18 18 18 18 18 18 18 19 19 18 18 18 18 18 18 18 18 17 17 17
21 20 20 20 19 19 18 19 19 18 18 18 18 18 18 18 18 18 18 18 18 18 18 18 18 18 18 17 18 18 18 18 18 18 18 18 18 18 18 18 18 17 17
21 21 20 20 19 19 19 19 18 18 18 18 18 18 18 18 18 18 17 17 17 17 17 17 17 17 17 17 17 18 18 18 18 17 17 18 18 18 18 18 18 17 17
21 20 20 19 19 19 19 19 19 18 18 18 18 18 18 18 18 17 17 17 17 17 17 17 17 17 17 17 17 17 17 18 17 17 17 17 18 18 18 18 18 18 17
21 20 20 19 19 19 19 19 19 18 18 18 18 18 18 18 17 17 17 17 17 17 17 17 16 17 17 17 17 17 17 17 17 17 17 17 17 18 18 18 18 18 18
20 20 20 19 19 19 19 19 18 18 18 18 18 18 17 17 17 17 17 17 16 16 16 16 16 16 16 17 17 17 17 17 17 17 17 17 17 17 17 17 17 17 17
20 20 19 19 19 19 19 19 18 18 18 18 18 17 17 17 17 17 16 16 16 16 16 16 16 16 17 17 17 16 17 17 17 17 17 17 17 17 17 17 17 17 17
20 19 19 19 19 19 19 18 18 18 18 18 17 17 17 17 16 16 16 16 16 16 16 16 16 16 16 16 16 16 17 17 17 17 17 17 17 17 17 17 17 17 17
19 19 19 18 18 19 18 18 18 18 18 17 17 17 17 16 16 16 16 16 16 16 16 16 15 16 16 16 16 16 16 16 17 17 17 17 17 17 17 17 17 16 16
19 19 19 18 18 18 18 18 18 18 17 17 17 17 16 16 16 16 16 16 16 15 15 15 15 16 16 16 16 17 17 17 16 17 17 17 17 17 17 16 16 16 16
19 19 19 18 18 18 18 18 18 17 17 17 17 16 16 16 16 16 15 15 15 15 15 15 15 15 16 16 16 16 17 17 17 16 16 16 16 16 16 16 16 16 16
19 18 18 18 18 18 18 18 18 17 17 17 17 16 16 16 16 16 15 15 15 15 15 15 15 15 16 16 16 16 17 17 17 17 17 16 16 16 16 16 16 16 16
18 19 18 18 18 18 18 18 17 17 17 17 17 16 16 16 15 15 15 15 15 15 15 15 15 15 16 16 16 16 16 16 16 17 16 16 16 16 16 16 16 16 16
18 18 18 18 18 18 17 17 17 17 17 17 17 16 16 16 15 15 15 15 15 15 15 15 15 15 15 15 16 16 16 16 16 16 16 16 16 16 16 16 16 15 15
18 18 18 18 18 18 17 17 17 17 17 17 17 17 16 16 15 15 15 15 15 14 14 14 15 15 15 15 15 16 16 16 16 17 17 16 16 16 16 16 15 15 15
18 18 18 18 18 18 18 17 17 17 17 17 17 17 16 16 16 15 15 15 15 14 14 14 14 14 14 15 15 15 15 16 16 16 16 17 16 16 16 16 16 15 15
Wind_Speed
19 19 20 18 16 15 15 15 15 15 14 14 14 13 13 12 13 13 13 13 13 13 12 12 11 11 11 10 10 10 10 10 11 12 14 14 14 13 12 12 15 17 17
22 21 21 19 17 16 15 15 15 15 14 14 13 13 12 12 12 12 13 12 13 13 12 12 12 11 11 10 10 9 8 8 9 11 13 14 13 11 10 10 15 15 16
22 21 20 19 18 17 16 15 15 15 14 14 13 12 11 11 12 12 12 12 12 12 12 12 12 11 11 10 10 8 7 6 7 9 11 12 12 12 13 16 17 16 15
21 20 20 20 18 17 16 16 15 14 14 13 12 11 11 11 11 11 11 11 11 11 11 11 11 11 10 10 9 7 5 4 3 5 6 10 12 13 14 15 15 14 13
20 20 21 20 18 17 16 15 15 14 13 12 11 11 11 10 10 10 10 10 10 10 10 10 10 10 10 9 7 5 4 3 2 2 8 14 14 13 13 13 13 13 12
20 21 21 20 18 17 16 15 14 13 12 12 11 10 9 9 9 9 9 9 9 9 9 9 9 9 8 7 6 4 5 6 8 1 12 15 14 12 12 12 12 12 11
20 20 20 19 18 16 15 14 13 13 12 11 10 9 9 9 9 9 8 8 8 7 7 7 7 7 7 5 4 4 6 9 8 3 14 15 14 13 12 12 11 11 11
20 20 20 19 18 16 15 14 13 12 11 10 10 9 9 8 8 8 7 7 7 6 6 6 6 5 5 4 2 3 7 10 6 7 15 16 16 14 12 11 11 10 10
20 19 17 18 16 15 15 14 13 12 11 10 9 9 8 7 7 7 7 6 5 5 5 4 4 3 3 2 0 3 7 10 10 3 14 15 17 15 12 11 11 10 10
16 18 16 17 16 15 14 13 13 12 11 10 9 8 7 7 7 7 6 5 4 4 3 2 2 2 2 3 3 4 7 10 8 4 11 14 18 15 13 11 10 9 9
12 13 15 16 15 15 15 14 13 12 11 10 9 8 7 6 7 7 6 7 5 4 3 2 3 3 4 6 6 6 7 8 1 7 10 17 18 15 13 11 10 9 9
12 10 9 12 12 12 13 14 12 11 11 9 8 8 7 5 5 6 9 7 6 5 4 5 5 5 7 6 8 8 7 7 0 7 11 18 17 15 13 11 10 9 8
12 10 9 8 8 9 8 9 8 8 10 8 8 6 3 2 4 6 4 5 5 5 3 5 5 4 2 1 2 4 4 5 5 7 12 16 16 14 12 11 10 10 9
12 11 9 8 8 6 7 6 6 6 6 6 6 4 5 3 3 4 3 2 0 2 2 1 1 1 2 2 2 2 3 3 5 7 11 14 14 12 12 11 11 10 10
11 10 9 9 9 7 5 3 5 5 6 8 7 6 3 3 3 4 3 3 2 3 3 2 2 1 1 1 2 1 2 2 3 4 9 11 12 11 11 11 11 11 11
11 11 10 10 10 7 5 3 3 5 6 8 8 7 6 7 5 2 1 1 3 5 4 2 1 1 1 0 1 0 1 2 1 2 5 9 11 11 12 12 12 12 12
11 11 10 10 10 7 6 5 4 5 7 7 9 8 7 8 4 2 1 2 3 2 1 0 2 2 2 2 2 2 2 1 1 1 1 5 9 12 13 12 13 13 12
10 11 10 10 11 8 6 3 3 4 6 7 9 9 8 6 3 3 3 4 4 2 2 1 2 3 2 2 1 0 1 1 2 3 4 5 5 7 12 13 13 14 13
10 11 9 8 10 9 7 4 4 4 4 7 8 8 6 4 2 3 4 3 5 1 3 4 4 3 3 3 2 1 1 1 1 2 2 3 4 5 8 13 14 14 14
10 10 10 10 9 9 7 4 3 4 4 6 7 7 6 4 3 3 4 2 4 4 4 4 2 1 2 2 4 1 0 1 1 1 1 1 4 4 6 8 11 12 14
11 11 11 11 9 8 6 5 5 5 4 5 6 8 6 4 4 3 4 1 2 5 4 4 3 3 1 1 3 2 3 3 3 2 1 2 1 1 4 7 7 7 10
13 12 11 11 11 9 6 5 4 5 4 5 5 7 7 5 4 3 2 1 3 4 3 2 2 3 2 2 2 3 1 2 1 3 2 2 2 2 0 4 6 6 6
13 14 12 11 11 10 9 6 5 4 2 4 7 5 5 6 4 3 2 2 1 1 3 1 3 3 3 2 3 3 3 3 1 2 2 3 2 1 1 1 4 5 5
14 14 13 12 11 10 9 8 9 7 6 6 6 6 6 6 5 6 4 2 1 2 3 1 4 3 2 3 1 2 2 2 2 1 1 3 3 2 1 2 2 3 5
14 14 14 13 11 11 10 8 8 7 6 5 6 8 7 6 6 6 6 4 2 0 3 4 3 3 3 4 4 2 1 1 3 2 0 1 2 3 3 1 1 2 5
14 13 14 13 12 11 10 9 8 7 6 6 7 8 6 6 6 6 6 5 3 2 4 2 1 0 2 3 4 4 3 2 2 2 2 2 1 2 3 2 1 1 3
Wind_Direction
124 124 121 118 116 117 118 116 113 112 110 107 102 99 95 92 90 88 86 85 85 84 83 82 81 78 74 71 70 72 75 81 87 93 96 96 95 95 97 103 104 99 102
122 125 121 119 118 118 117 116 114 113 111 109 107 103 100 96 92 91 89 86 85 84 83 82 82 79 76 75 75 76 81 92 101 107 108 103 99 95 92 94 100 107 106
122 125 123 120 119 119 118 117 116 115 113 112 109 106 103 98 95 93 90 88 87 86 84 83 83 81 78 75 74 76 83 96 111 122 121 113 105 96 93 98 104 108 107
126 132 127 124 122 121 120 119 118 117 116 114 110 106 102 99 96 92 90 89 88 87 86 84 83 81 79 75 72 70 72 83 113 144 149 128 113 103 101 104 108 109 109
127 126 127 128 126 124 123 122 122 120 118 116 112 108 105 101 99 96 93 92 91 88 87 87 86 84 81 76 69 55 36 18 312 213 120 107 107 113 109 110 111 112 111
127 126 130 130 128 127 127 126 124 123 122 120 117 114 110 105 101 98 94 92 92 90 89 91 89 87 85 77 64 31 354 333 305 155 121 116 116 120 118 116 115 115 114
131 128 133 131 130 129 128 128 128 127 125 124 121 118 114 110 105 99 95 93 93 93 92 91 92 91 89 79 57 8 334 321 290 112 117 115 122 126 124 121 120 119 117
130 128 132 132 133 133 133 133 133 131 130 128 125 121 118 114 109 106 98 95 94 94 97 95 94 96 96 87 52 341 323 318 328 101 117 121 129 128 127 125 125 124 121
130 131 139 139 138 138 139 139 139 138 137 135 131 129 130 129 126 122 114 105 100 100 101 102 105 106 109 116 50 312 310 312 306 117 121 127 133 132 134 133 132 131 130
131 137 145 148 147 149 147 146 144 144 144 143 144 148 151 154 153 149 140 128 120 116 119 125 139 160 176 196 230 268 290 301 295 72 112 132 137 136 139 140 139 139 138
130 138 151 147 154 158 154 150 152 153 156 157 162 170 178 186 173 164 141 147 157 158 164 181 197 210 219 218 227 249 272 275 337 97 118 142 142 140 143 147 147 147 149
137 132 135 145 156 156 149 150 160 163 161 175 166 175 190 186 172 144 146 161 173 182 192 204 224 233 235 225 215 232 256 272 33 120 136 146 143 144 149 155 157 159 159
144 132 136 146 138 131 132 153 149 151 155 161 151 149 131 110 110 111 139 163 189 190 193 184 220 243 235 247 211 227 286 337 43 92 138 147 144 147 154 162 165 168 169
144 136 144 134 115 113 126 128 140 144 138 122 110 82 81 65 60 70 64 21 294 139 119 107 195 71 21 351 320 311 329 349 42 106 149 150 147 154 162 170 174 176 177
145 137 132 118 104 99 96 131 126 114 118 114 111 83 67 79 63 64 63 10 352 50 77 51 50 49 340 292 294 327 354 354 5 73 135 154 156 164 170 178 185 189 187
147 132 128 123 115 115 116 102 109 119 116 114 102 85 64 75 57 32 92 37 33 57 52 12 7 248 230 195 264 0 310 324 11 62 144 166 172 178 182 188 191 196 198
145 134 132 133 131 137 140 147 142 140 128 110 106 93 71 77 64 5 69 71 31 47 99 62 322 279 229 221 203 192 215 245 359 5 240 185 182 191 195 197 199 201 203
146 141 147 149 143 144 142 153 132 120 115 117 121 108 88 87 56 1 52 54 346 350 45 73 13 352 359 344 359 1 133 167 221 235 243 220 190 186 195 202 205 206 208
148 148 146 137 142 146 146 140 114 104 106 118 119 114 112 107 79 49 73 38 304 32 46 34 54 12 347 357 311 205 227 153 184 244 246 225 190 187 185 196 207 210 211
157 155 149 144 141 142 141 134 127 126 137 128 117 118 130 128 81 29 106 41 351 57 51 51 19 350 304 322 314 89 138 131 199 84 295 250 179 196 183 184 195 209 214
165 159 156 152 149 148 148 155 152 156 160 138 135 139 145 131 106 12 81 111 53 78 52 35 5 302 220 20 309 251 187 184 150 129 95 9 61 172 175 170 179 190 200
169 162 158 157 160 161 159 162 160 155 173 152 133 143 157 151 163 151 80 141 77 107 80 45 32 336 348 85 328 307 187 142 246 130 142 139 46 15 158 160 169 183 204
171 167 167 163 163 166 161 165 161 150 195 150 138 160 170 163 156 78 94 51 28 128 115 55 16 13 351 353 57 5 5 43 180 131 121 99 91 27 17 126 155 176 187
175 172 164 163 164 164 170 176 173 179 193 172 163 161 168 176 173 154 155 109 355 47 106 95 81 339 325 332 120 109 89 63 345 35 199 134 163 147 77 14 76 126 138
176 173 166 165 167 165 178 181 183 188 192 169 158 151 168 174 184 175 164 159 185 106 97 71 72 8 352 7 355 3 63 224 247 249 197 199 211 155 137 121 101 110 134
177 172 165 166 170 172 183 183 192 203 193 163 159 160 182 174 182 182 174 170 191 180 130 123 93 93 54 28 351 341 344 345 341 345 339 296 214 156 151 126 117 163 152
Height
1516 1519 1523 1526 1529 1531 1534 1536 1537 1539 1540 1541 1543 1543 1544 1545 1546 1546 1547 1548 1549 1550 1550 1551 1552 1552 1553 1554 1554 1555 1555 1556 1557 1558 1559 1560 1561 1562 1563 1564 1565 1566 1567
1515 1519 1523 1527 1530 1532 1535 1537 1539 1540 1542 1543 1544 1545 1546 1547 1548 1548 1549 1550 1551 1551 1552 1553 1553 1554 1554 1555 1556 1556 1557 1558 1558 1559 1561 1562 1563 1564 1565 1566 1567 1568 1569
1515 1520 1524 1528 1531 1533 1536 1538 1540 1542 1543 1544 1546 1547 1548 1549 1549 1550 1551 1552 1552 1553 1554 1554 1555 1556 1556 1557 1557 1558 1559 1560 1560 1561 1562 1564 1565 1566 1567 1568 1569 1570 1572
1517 1521 1525 1528 1532 1535 1537 1539 1541 1543 1544 1546 1547 1548 1549 1550 1551 1552 1553 1553 1554 1555 1555 1556 1557 1557 1558 1559 1559 1560 1561 1562 1563 1564 1564 1566 1567 1568 1569 1570 1571 1573 1574
1519 1522 1525 1529 1533 1536 1538 1541 1542 1544 1546 1547 1548 1549 1550 1551 1552 1553 1554 1555 1556 1556 1557 1558 1558 1559 1560 1560 1561 1562 1563 1564 1565 1565 1566 1568 1569 1570 1571 1572 1573 1575 1576
1520 1523 1527 1530 1534 1537 1539 1542 1543 1545 1547 1548 1549 1551 1552 1553 1554 1554 1555 1556 1557 1558 1559 1559 1560 1561 1561 1562 1563 1564 1565 1566 1566 1568 1568 1569 1570 1571 1572 1574 1575 1576 1578
1521 1524 1528 1531 1534 1537 1540 1543 1544 1546 1548 1549 1550 1552 1553 1554 1555 1556 1557 1557 1558 1559 1560 1560 1561 1562 1562 1563 1564 1565 1566 1567 1568 1569 1569 1570 1571 1572 1573 1575 1576 1578 1579
1521 1524 1528 1532 1535 1538 1541 1543 1545 1547 1548 1550 1551 1552 1554 1555 1556 1557 1558 1558 1559 1560 1560 1561 1562 1562 1563 1564 1565 1566 1567 1567 1568 1570 1569 1570 1571 1573 1574 1576 1577 1579 1581
1522 1525 1529 1533 1536 1539 1541 1544 1546 1548 1549 1551 1552 1553 1555 1556 1557 1557 1558 1559 1559 1560 1561 1561 1562 1563 1564 1565 1566 1567 1567 1568 1568 1570 1569 1570 1571 1573 1575 1576 1578 1580 1581
1524 1526 1529 1533 1537 1539 1542 1544 1546 1548 1550 1551 1553 1554 1555 1556 1557 1558 1559 1559 1560 1560 1561 1561 1562 1563 1564 1565 1566 1567 1568 1568 1568 1569 1569 1570 1571 1573 1575 1577 1578 1580 1582
1524 1527 1531 1535 1537 1541 1542 1545 1547 1549 1550 1552 1553 1555 1556 1557 1558 1558 1559 1559 1560 1560 1560 1561 1562 1562 1563 1564 1565 1566 1567 1568 1568 1567 1567 1570 1572 1573 1575 1577 1579 1580 1582
1524 1528 1531 1535 1538 1542 1544 1545 1547 1549 1551 1552 1554 1555 1556 1558 1559 1559 1559 1559 1559 1559 1560 1561 1561 1562 1563 1564 1565 1566 1566 1568 1568 1566 1567 1570 1571 1573 1575 1577 1579 1580 1582
1524 1528 1531 1536 1539 1542 1544 1546 1548 1550 1551 1553 1554 1556 1557 1558 1559 1559 1559 1559 1559 1559 1560 1560 1561 1561 1562 1563 1564 1565 1566 1567 1567 1566 1567 1570 1572 1573 1574 1577 1579 1580 1582
1525 1528 1530 1533 1537 1540 1543 1546 1549 1551 1552 1553 1555 1556 1557 1558 1558 1558 1558 1559 1559 1560 1560 1560 1561 1561 1562 1563 1564 1564 1565 1566 1567 1566 1568 1571 1572 1572 1574 1576 1578 1580 1582
1523 1527 1530 1533 1536 1540 1543 1546 1549 1551 1552 1553 1554 1555 1557 1557 1557 1557 1558 1558 1559 1559 1559 1560 1560 1560 1561 1562 1563 1564 1564 1566 1566 1567 1567 1569 1570 1572 1573 1575 1577 1579 1581
1521 1525 1529 1533 1536 1540 1543 1546 1548 1550 1552 1553 1554 1555 1556 1556 1556 1557 1557 1558 1558 1558 1558 1559 1560 1560 1561 1561 1562 1563 1564 1565 1566 1566 1567 1568 1570 1571 1572 1574 1576 1578 1579
1521 1524 1528 1532 1536 1539 1543 1546 1548 1551 1552 1553 1553 1554 1555 1555 1555 1556 1557 1557 1557 1558 1558 1559 1559 1559 1560 1561 1562 1562 1563 1564 1564 1565 1566 1568 1569 1570 1571 1572 1574 1576 1578
1520 1524 1527 1531 1535 1539 1542 1545 1548 1551 1552 1553 1553 1554 1554 1555 1555 1556 1557 1556 1557 1558 1558 1558 1558 1559 1560 1560 1561 1562 1562 1563 1564 1564 1565 1567 1568 1569 1570 1571 1572 1573 1575
1519 1523 1526 1530 1534 1537 1541 1545 1547 1549 1551 1553 1553 1553 1554 1554 1555 1556 1556 1556 1557 1558 1558 1557 1557 1558 1558 1559 1560 1561 1562 1562 1563 1564 1565 1566 1567 1568 1568 1569 1570 1571 1572
1518 1522 1526 1529 1533 1536 1540 1543 1546 1549 1551 1552 1553 1553 1554 1555 1555 1555 1555 1556 1556 1557 1557 1557 1557 1558 1558 1559 1560 1561 1561 1562 1563 1563 1564 1565 1566 1566 1567 1567 1568 1569 1570
1516 1520 1524 1528 1531 1535 1538 1542 1545 1547 1550 1552 1552 1553 1554 1554 1555 1555 1555 1556 1556 1556 1556 1556 1556 1557 1559 1559 1559 1560 1561 1562 1562 1563 1564 1564 1565 1566 1566 1566 1567 1567 1568
1514 1518 1522 1526 1530 1533 1537 1541 1544 1547 1549 1551 1552 1553 1553 1554 1554 1555 1555 1556 1556 1556 1556 1556 1556 1557 1559 1559 1559 1559 1560 1562 1562 1563 1563 1564 1564 1565 1565 1566 1566 1566 1566
1512 1516 1519 1523 1527 1532 1536 1540 1543 1546 1548 1550 1551 1552 1553 1553 1554 1554 1555 1555 1556 1556 1556 1556 1556 1557 1558 1559 1559 1560 1560 1561 1562 1563 1563 1563 1564 1564 1565 1565 1565 1565 1565
1509 1513 1517 1521 1525 1530 1533 1537 1540 1543 1546 1548 1549 1550 1551 1552 1553 1553 1554 1554 1555 1556 1556 1556 1556 1557 1558 1559 1559 1560 1560 1560 1562 1563 1563 1563 1563 1563 1564 1565 1564 1564 1564
1507 1511 1515 1519 1524 1528 1532 1536 1539 1542 1545 1547 1548 1549 1550 1551 1552 1552 1553 1553 1554 1555 1555 1555 1555 1556 1557 1557 1558 1560 1560 1561 1561 1562 1563 1563 1563 1563 1563 1563 1564 1564 1564
1506 1509 1513 1517 1521 1526 1530 1533 1537 1540 1543 1545 1546 1547 1548 1549 1550 1551 1552 1552 1553 1554 1554 1554 1555 1556 1556 1556 1557 1558 1560 1560 1561 1561 1561 1561 1561 1562 1562 1562 1562 1563 1563